GFSGL_925_thetae_120.txt.gz
Theta_e
297 298 301 303 306 315 323 327 330 331 332 331 330 330 328 326 327 327 327 326 327 324 322 322 321 320 321 321 321 320 321 321 319 320 321 320 318 318 315 314 317 320 320
295 296 297 299 301 305 314 322 329 329 330 329 328 328 326 327 326 326 325 325 325 322 322 321 321 320 321 321 321 320 319 320 320 318 319 319 319 319 319 320 320 320 320
293 294 295 296 297 299 303 313 323 328 327 327 328 327 326 326 325 324 324 324 324 322 322 321 321 321 320 320 320 319 319 320 319 318 318 318 318 318 318 319 319 319 320
292 292 293 294 294 296 298 304 311 320 325 326 325 326 325 325 325 323 323 324 323 323 322 321 320 321 321 320 320 320 319 319 318 318 318 318 318 318 318 318 318 318 319
291 291 291 292 293 293 295 297 301 308 312 319 323 325 325 325 324 323 323 322 322 321 322 322 321 321 321 321 320 320 320 319 319 318 318 318 317 318 318 318 318 318 317
288 288 290 291 291 291 292 293 294 297 302 304 311 310 317 319 323 323 324 322 322 322 322 322 322 322 322 321 321 321 321 320 319 319 319 318 318 318 318 318 318 316 308
286 286 287 288 290 290 290 290 291 292 293 297 298 297 297 299 306 321 322 323 322 322 322 322 321 322 321 321 321 320 320 320 320 320 319 318 318 318 318 317 316 315 312
284 284 285 286 287 288 289 290 289 290 290 290 291 293 294 293 300 307 316 321 321 320 319 319 320 321 320 320 319 317 316 316 317 317 317 317 317 317 317 317 316 314 308
282 282 283 284 285 285 286 287 288 288 288 288 287 289 291 292 294 298 305 303 307 305 306 308 312 314 317 317 317 314 309 309 309 314 314 314 314 314 315 314 313 308 296
281 281 281 283 283 284 285 286 286 287 287 287 286 286 285 288 291 292 296 296 291 293 294 296 299 302 302 311 312 313 304 301 302 301 301 302 304 306 307 307 306 306 295
282 281 281 281 282 282 283 284 285 286 286 286 286 286 286 285 285 287 291 292 292 288 288 288 290 295 296 298 301 301 299 295 293 294 294 293 293 296 296 297 299 300 297
283 281 281 280 281 282 282 283 283 284 285 285 285 285 285 285 285 285 285 286 287 287 284 284 285 286 290 292 292 290 290 291 289 288 287 285 286 286 288 290 291 293 294
282 282 280 280 280 281 281 282 283 283 283 283 284 284 284 283 284 285 285 285 284 283 283 284 286 286 286 286 287 288 289 288 285 282 280 280 281 282 284 285 286 287 287
281 281 281 280 280 280 280 281 281 282 282 282 282 282 282 282 282 282 283 283 285 284 283 283 283 283 283 283 284 283 283 283 282 280 279 280 280 280 281 282 282 283 283
280 280 280 280 279 280 279 279 279 280 280 281 280 280 281 281 281 281 281 281 282 282 283 283 280 279 279 279 280 280 280 280 280 279 279 279 278 277 277 278 278 278 278
279 279 279 278 279 279 279 279 279 278 278 278 279 279 279 279 280 279 279 279 281 281 279 277 277 277 277 277 277 277 279 279 279 279 279 278 277 277 276 276 276 276 276
277 277 278 278 278 277 277 277 277 278 277 276 276 277 277 277 277 278 277 277 278 279 276 275 274 275 275 275 275 276 276 277 278 278 278 277 277 276 276 275 275 275 275
277 277 277 277 277 276 276 276 275 274 274 274 275 274 274 275 275 276 277 278 275 274 273 273 273 273 273 273 274 274 275 276 276 276 276 276 276 276 275 275 275 275 275
276 276 276 277 277 276 275 275 275 274 273 273 273 273 274 274 274 274 274 273 272 271 272 272 272 272 272 272 273 273 273 273 274 274 274 274 275 275 274 274 274 274 274
275 275 275 275 275 276 275 274 274 273 273 272 271 270 271 272 271 270 270 271 271 270 270 270 270 271 271 271 272 272 272 273 273 273 273 273 273 273 272 272 272 271 271
274 274 274 275 274 274 274 274 273 273 272 271 270 270 269 269 269 268 268 268 268 269 269 269 269 269 269 270 270 270 271 271 271 271 272 272 272 272 271 271 270 270 270
272 273 273 273 273 273 273 273 273 272 271 270 270 269 269 268 268 267 267 267 267 267 267 267 267 267 267 267 267 268 269 269 269 270 271 271 271 270 270 270 269 269 269
270 271 271 271 272 272 272 272 272 271 271 270 269 269 268 267 267 266 266 266 265 265 265 266 265 265 264 264 265 266 267 268 268 268 269 269 270 270 269 269 269 269 269
269 269 269 269 270 270 271 271 271 270 270 270 269 268 268 267 266 266 265 265 265 264 264 264 264 264 264 264 264 264 264 265 266 267 267 267 268 268 268 268 268 268 268
268 268 268 268 268 269 269 269 269 269 269 269 268 268 267 267 266 266 265 265 264 264 264 263 263 263 263 263 263 264 264 264 265 265 266 266 266 267 267 267 267 267 267
267 267 267 267 267 267 267 267 268 268 267 267 267 267 266 266 265 265 265 264 264 264 263 263 262 262 262 262 262 262 263 264 264 264 265 265 265 265 265 265 265 265 265

GFSGL_925_thetae_123.txt.gz
Theta_e
295 296 298 298 299 302 305 311 317 325 330 330 330 329 330 328 329 328 326 327 327 326 326 325 325 325 322 322 321 321 321 322 322 321 321 320 321 321 321 320 319 319 319
293 294 295 296 296 298 300 304 311 320 328 328 329 328 329 328 328 327 325 326 325 325 325 324 324 322 321 321 320 321 321 321 321 319 320 319 320 319 319 318 318 314 317
293 293 293 293 294 294 296 298 303 311 319 325 327 328 328 328 327 326 325 326 325 325 324 324 323 323 321 321 321 321 321 320 320 318 319 319 319 319 318 318 318 317 317
291 291 291 292 293 293 293 294 296 298 304 312 318 324 325 326 326 325 324 324 324 323 324 324 322 322 322 321 321 321 320 320 319 319 318 318 318 318 318 318 317 318 318
289 290 289 290 291 292 292 292 293 294 295 297 303 308 312 312 308 314 322 323 323 322 322 323 322 322 321 322 321 320 320 319 319 318 319 318 317 317 317 318 318 317 317
287 288 288 289 289 290 290 291 291 291 291 292 292 294 295 296 301 308 312 321 323 321 321 322 322 322 321 321 321 321 320 320 319 319 319 319 318 318 318 318 318 317 310
285 285 286 287 287 288 288 289 290 289 289 288 288 289 289 290 296 304 312 316 321 321 321 321 321 321 322 321 321 321 320 320 320 321 320 319 319 319 318 318 318 318 317
283 283 284 285 285 286 287 287 288 288 288 287 287 287 287 288 292 297 302 308 310 309 311 315 319 320 321 321 321 320 319 318 319 320 319 319 319 318 318 318 317 315 308
282 282 282 283 284 284 285 286 286 287 287 287 286 286 286 286 291 293 294 297 296 292 295 298 303 306 314 318 320 317 313 311 312 315 317 317 317 318 317 316 315 308 297
282 281 281 282 282 283 284 284 285 285 286 286 286 285 285 285 285 289 291 290 290 292 291 290 291 295 299 303 310 312 308 305 304 304 305 306 308 310 312 311 313 307 298
282 281 281 281 282 282 283 284 283 284 284 284 285 285 284 284 284 284 285 287 285 284 285 285 285 289 293 296 300 300 298 293 291 294 295 294 295 297 299 300 302 303 301
282 281 281 280 281 282 282 282 283 283 283 283 283 283 283 283 283 283 283 284 284 283 282 282 283 284 285 288 288 289 291 292 291 289 286 284 285 286 287 290 292 294 295
281 281 281 281 281 281 281 281 282 282 282 282 282 282 282 282 282 281 282 284 284 282 281 282 284 285 285 284 286 286 286 286 284 283 281 280 281 282 283 284 285 286 287
281 281 281 281 280 280 280 280 280 280 281 280 281 280 281 281 280 280 281 282 283 283 282 282 282 282 281 282 282 281 281 281 280 280 279 280 281 282 282 282 283 283 282
280 280 279 280 279 279 279 279 279 278 278 279 279 279 279 279 279 279 279 279 279 279 280 280 279 279 279 279 279 279 280 280 280 280 279 279 279 279 279 280 280 280 280
278 278 278 278 278 278 278 278 277 276 277 277 277 277 277 277 278 278 277 277 280 278 278 277 278 278 278 278 278 278 278 278 279 279 278 278 278 278 278 278 279 279 279
276 276 277 277 277 276 276 276 276 276 275 274 274 274 276 275 275 276 276 275 276 276 276 276 276 276 276 276 277 277 276 276 278 278 278 278 277 277 277 277 277 278 278
275 275 275 275 275 275 275 275 275 274 274 274 273 272 272 273 273 274 275 275 275 274 274 274 274 274 274 274 274 275 275 275 276 276 276 276 277 277 277 277 277 277 277
274 274 274 274 274 274 274 274 274 273 273 272 272 271 271 272 271 272 271 272 272 272 272 272 272 272 272 272 272 272 273 273 274 274 275 275 276 276 275 275 275 275 276
273 273 273 273 274 274 274 274 273 273 272 271 270 269 269 270 270 269 269 269 269 269 270 270 269 269 269 270 270 271 272 272 273 273 273 274 274 274 274 274 274 274 274
271 272 272 273 272 272 273 273 272 272 271 271 270 268 268 268 268 267 267 267 267 267 267 267 267 266 267 267 268 269 269 269 270 271 272 272 272 272 272 272 272 272 273
270 270 271 271 271 271 271 271 271 271 270 270 270 269 268 268 267 267 266 265 264 265 264 264 264 264 265 265 265 266 266 267 267 268 270 270 271 271 271 271 271 271 271
269 269 269 270 270 270 270 269 270 270 270 269 268 268 268 267 266 266 265 264 263 263 264 263 263 263 264 264 264 265 265 266 267 268 268 269 270 270 270 270 270 270 269
268 268 268 268 268 268 269 269 268 268 268 268 267 267 267 266 265 265 264 264 264 263 264 263 263 263 263 263 263 263 264 265 266 267 267 267 268 269 269 269 268 268 268
267 267 267 267 267 267 267 267 268 267 267 267 267 267 266 266 266 265 264 264 264 263 263 263 263 262 262 262 262 263 264 264 265 266 266 266 267 267 267 267 267 267 267
267 267 267 267 267 266 266 266 266 266 266 266 266 265 265 265 265 264 264 264 264 263 263 263 262 262 262 262 262 262 263 264 264 264 265 265 265 265 265 265 266 266 266

GFSGL_925_thetae_126.txt.gz
Theta_e
296 297 298 299 300 300 301 301 303 309 318 323 329 331 331 331 332 331 332 331 331 330 330 330 329 328 328 327 325 325 324 324 326 326 324 323 322 322 322 322 322 322 321
295 295 295 295 296 296 296 298 301 303 307 316 324 329 329 330 332 331 329 329 328 328 328 328 327 327 327 326 324 324 324 323 325 324 323 321 321 321 321 321 322 321 320
293 293 293 293 294 294 294 294 295 297 299 303 310 315 318 326 328 328 327 327 327 327 327 327 327 326 325 325 324 323 323 322 324 324 322 320 320 320 320 321 321 319 319
293 293 293 292 292 293 293 293 293 293 293 295 296 298 299 303 306 312 318 325 326 326 326 326 326 326 325 324 324 323 323 324 323 323 321 319 320 319 320 319 318 318 318
290 292 293 293 292 291 292 292 293 292 291 291 292 293 294 293 294 299 308 316 322 325 325 325 324 326 325 324 324 323 323 323 323 322 319 319 318 318 319 319 319 318 319
289 289 291 292 293 292 291 292 291 292 290 291 290 289 289 290 293 296 304 310 313 320 323 323 323 324 325 324 323 323 323 323 322 321 320 319 319 318 318 319 319 318 313
287 287 288 290 291 292 292 292 291 290 290 289 289 289 288 287 291 294 294 298 300 303 304 309 317 322 323 323 322 322 322 321 322 321 321 321 320 320 319 318 318 318 318
285 285 286 287 288 289 289 290 290 290 289 288 288 287 287 286 286 291 291 292 293 293 293 295 298 301 310 319 320 320 320 321 320 321 321 321 321 322 320 319 318 318 312
284 284 284 285 286 286 287 287 288 288 288 287 286 286 285 285 285 285 287 289 289 288 287 289 293 293 297 303 313 319 318 315 316 317 318 319 320 320 320 319 317 308 298
283 283 283 284 284 284 284 285 286 286 285 286 285 284 284 284 284 284 285 285 285 285 286 287 287 290 293 298 302 306 305 305 306 305 307 309 313 315 317 316 315 310 300
284 283 283 283 283 283 284 284 284 285 285 284 285 284 283 283 283 283 283 283 284 285 283 283 283 285 289 292 293 295 296 296 292 293 295 294 298 299 300 302 306 308 303
284 284 284 283 283 282 283 283 283 284 284 285 284 285 284 283 282 282 283 282 282 284 283 283 282 282 285 288 287 288 289 290 290 290 289 286 284 287 289 290 292 297 298
283 283 283 283 283 283 282 282 282 282 283 283 283 283 283 283 282 281 282 282 282 283 282 282 281 281 282 282 283 286 285 284 283 282 280 280 281 282 284 285 285 286 288
282 282 282 283 282 282 282 281 280 279 280 280 281 281 281 281 280 280 280 281 282 282 282 282 282 282 282 281 281 282 282 281 280 280 280 280 281 282 283 283 283 282 282
281 281 281 281 281 281 282 280 279 278 277 278 278 279 278 279 278 278 278 279 280 281 282 283 283 282 282 282 282 281 281 281 281 281 281 281 280 280 281 282 282 282 281
280 280 279 280 280 280 280 281 279 277 276 275 275 276 277 276 276 277 277 277 278 280 281 281 281 281 281 281 280 280 280 279 280 280 280 280 280 281 281 281 281 282 282
278 277 279 279 279 279 279 279 279 279 278 276 274 273 274 274 274 275 276 277 277 279 279 279 279 279 279 279 279 280 279 278 278 279 279 279 279 279 280 280 281 281 281
277 276 277 278 278 278 278 278 277 277 277 277 275 273 272 273 273 273 274 277 278 277 277 277 277 277 277 277 277 278 278 278 278 279 279 279 279 279 279 279 280 280 279
275 275 276 277 277 276 277 277 276 276 276 275 274 273 272 272 273 273 273 274 274 274 274 274 274 274 274 275 275 276 276 277 277 278 278 279 278 278 278 277 277 277 278
275 274 274 276 276 276 276 276 276 275 275 275 274 271 270 273 272 272 271 271 272 272 272 272 272 272 272 273 274 274 275 275 276 277 277 277 277 278 277 278 278 278 277
274 274 273 275 275 274 274 275 274 274 274 274 273 270 269 271 271 271 270 270 269 270 269 270 269 269 269 270 271 272 272 273 273 275 275 275 275 276 276 276 276 276 276
273 273 273 273 273 273 273 273 273 273 273 273 272 272 270 271 270 270 269 268 268 268 268 268 268 267 266 266 268 269 270 270 270 271 273 274 274 274 274 275 275 275 275
272 272 272 272 272 272 272 272 272 272 272 271 271 271 270 270 269 269 268 268 267 267 266 266 266 265 265 265 265 266 267 267 267 267 270 272 273 274 274 274 273 273 273
271 271 271 271 271 270 271 271 271 271 270 270 270 270 270 269 269 268 267 267 266 266 266 265 265 263 263 263 264 264 263 263 264 266 268 270 271 272 272 272 271 271 271
271 270 270 270 270 270 270 270 270 270 269 269 269 269 268 268 268 268 267 266 266 266 265 265 263 263 263 262 261 262 263 264 265 265 267 268 269 269 270 270 271 270 270
270 270 270 270 270 269 269 269 269 269 268 268 268 268 268 268 267 267 267 266 265 265 265 265 264 262 262 263 261 261 262 263 264 264 265 267 268 268 269 268 268 270 269

GFSGL_925_thetae_129.txt.gz
Theta_e
297 298 297 298 299 299 298 298 300 301 303 306 311 323 331 333 332 331 332 333 333 334 333 334 335 335 334 334 333 331 330 330 330 328 326 325 326 325 324 323 323 323 324
295 296 295 296 297 297 296 295 296 296 297 298 301 305 308 315 319 320 327 332 332 333 333 332 332 332 333 332 331 331 330 328 327 325 325 326 326 325 324 322 322 323 322
296 296 295 295 294 295 295 294 295 294 295 295 297 297 296 299 304 309 313 319 327 330 330 330 329 329 329 329 329 328 328 327 326 325 326 325 324 324 323 322 321 322 322
291 294 295 295 294 294 293 294 293 293 293 292 292 293 292 292 295 298 304 311 316 321 327 329 328 328 328 328 328 327 327 326 325 324 326 325 322 321 321 320 320 320 320
290 291 293 293 294 294 293 293 292 291 291 290 291 290 289 289 290 294 298 301 305 307 312 319 326 326 327 327 327 326 326 324 324 325 326 324 321 320 320 320 320 319 319
288 289 291 292 292 292 293 292 292 291 290 290 290 290 288 287 288 293 293 293 293 294 294 302 308 313 310 322 325 326 326 325 325 326 325 323 321 320 320 320 320 318 317
287 288 289 289 290 290 290 291 291 290 290 289 289 289 289 286 286 289 290 290 290 290 289 290 293 293 300 304 313 321 325 325 324 325 324 322 321 320 319 319 319 319 318
286 286 287 288 288 288 288 289 289 288 288 288 287 287 287 285 285 286 290 289 287 287 287 287 287 289 291 296 303 308 319 321 323 323 323 322 322 321 320 319 319 319 316
285 285 285 285 286 286 286 286 287 287 287 287 286 286 285 285 284 284 288 289 289 287 285 285 284 285 287 292 297 303 309 314 318 319 321 320 321 322 322 321 319 310 298
286 285 285 284 284 284 285 285 286 287 286 286 286 285 284 284 283 284 284 285 286 287 286 285 284 284 284 286 289 292 296 295 296 299 300 302 306 313 319 318 317 314 302
286 286 285 285 284 284 284 284 284 285 285 285 285 285 284 283 283 283 283 284 284 285 285 284 284 283 283 284 286 287 288 292 292 293 293 292 293 293 298 303 304 309 307
285 285 285 285 285 284 283 283 283 283 284 284 284 284 283 282 282 281 282 282 283 284 284 283 283 284 283 283 283 284 287 287 287 286 286 286 286 285 286 287 292 294 297
284 284 285 284 285 285 284 282 281 281 282 282 282 282 282 281 280 280 280 281 282 283 284 284 283 284 284 283 283 283 283 282 282 281 281 281 282 283 284 284 285 286 289
284 283 284 284 283 284 283 282 281 279 279 279 279 279 279 279 278 278 279 279 280 282 283 283 283 283 283 283 283 282 283 282 283 282 282 282 282 283 283 283 283 283 282
282 282 282 283 283 282 282 281 281 278 277 277 276 276 277 277 276 277 278 279 279 280 282 282 282 282 282 282 282 282 282 282 282 282 282 282 282 283 282 283 282 281 281
281 280 281 282 281 281 281 281 280 279 278 276 275 275 275 275 275 275 276 278 279 280 281 281 281 281 281 281 281 281 281 281 281 282 282 281 281 282 282 282 282 283 283
279 278 280 280 280 280 280 280 280 280 279 278 276 275 274 274 274 274 275 277 279 278 279 278 278 279 279 279 280 280 280 280 281 281 281 281 281 281 281 281 282 282 282
278 277 278 279 279 279 279 279 279 279 279 279 278 275 273 274 275 274 274 276 276 276 276 276 276 276 276 277 277 278 279 279 280 281 281 280 280 279 279 279 280 280 280
277 277 276 278 279 278 278 278 278 278 278 278 277 276 273 273 275 274 274 273 274 274 274 274 274 274 274 274 275 275 277 277 278 279 279 280 280 280 279 279 279 279 279
277 277 276 277 278 277 277 277 277 277 277 276 276 275 272 273 274 274 273 272 272 272 272 272 272 271 271 272 273 274 275 275 276 277 278 278 279 279 279 279 279 279 278
276 276 276 276 276 276 276 276 276 276 276 275 275 274 272 272 273 273 272 271 270 270 270 270 271 271 270 270 270 271 273 273 273 274 276 277 277 277 277 277 277 278 278
275 275 275 275 275 275 274 275 275 275 274 274 274 273 272 272 272 271 271 270 270 269 269 269 268 268 268 268 269 269 270 270 270 270 272 275 276 276 276 276 277 277 277
274 274 275 274 274 273 274 274 274 274 273 273 273 272 272 272 271 271 270 270 269 269 268 267 267 266 266 266 267 267 267 266 267 269 270 273 274 274 275 275 275 274 274
274 274 274 274 274 273 273 273 273 272 272 272 272 272 271 271 271 271 270 269 268 268 268 267 266 266 265 264 264 264 263 262 264 265 268 271 272 272 273 273 273 273 273
274 273 273 273 273 273 272 272 272 272 271 271 271 271 271 270 270 270 269 269 268 267 267 267 266 265 264 265 262 261 262 263 263 265 267 269 270 271 270 271 272 272 271
273 273 273 272 272 272 272 271 271 271 271 271 270 270 270 270 269 269 268 268 268 266 267 267 266 265 265 265 263 261 262 263 264 265 267 269 269 269 269 270 270 271 271